Wind_Speed
30 30 30 31 32 33 33 32 30 30 31 32 33 34 35 34 32 30 30 29 27 25 23 21 20 18 17 16 15 15 15 13 12 12 11 11 10 9 9 9 8 7 6 6 7 9 10 11 12 13 14 15 15 16 15 15 14 15 15 13 11 11 10 11 14 18 19 18 16 16 17 17 16 15 14 14 15 16 18 18 18 18 18 18 17 17 18
31 31 30 29 30 32 33 33 32 31 32 33 34 35 36 35 33 30 28 27 27 25 24 24 22 20 20 19 17 17 16 14 13 13 12 12 11 10 9 8 7 7 7 7 8 8 9 10 11 12 13 13 13 14 14 14 14 14 14 12 10 10 10 11 13 16 17 17 17 17 18 18 18 16 16 16 16 18 19 18 18 18 18 19 19 19 19
32 32 30 29 30 32 33 33 33 32 33 35 37 36 36 36 34 30 25 22 22 22 22 22 20 18 18 17 17 17 17 15 15 14 14 13 13 11 10 9 8 8 8 9 10 10 9 10 11 11 12 12 12 13 14 14 13 14 14 11 9 9 11 13 13 15 17 18 19 19 20 20 19 16 16 17 18 18 19 18 17 17 18 19 19 19 19
33 33 32 31 32 32 34 34 34 32 31 32 35 35 34 34 34 33 28 24 22 21 19 17 15 14 14 14 15 16 17 16 16 15 15 14 13 12 11 10 9 8 9 10 10 10 10 10 11 12 13 13 12 12 14 14 13 13 12 10 8 8 11 14 14 15 17 17 17 19 20 20 19 17 17 19 19 20 19 18 16 17 17 18 18 17 17
34 34 34 34 34 34 35 35 34 33 30 28 30 31 31 31 30 31 31 29 28 27 25 22 20 17 15 14 14 16 17 17 16 16 16 16 15 13 12 11 10 10 10 10 10 11 11 11 12 14 14 14 13 13 13 13 12 10 9 9 7 6 8 10 12 14 15 15 16 18 18 18 19 18 19 20 21 21 21 19 17 17 17 16 16 16 17
32 33 35 35 35 36 36 35 33 33 33 30 28 28 30 31 28 23 21 22 24 27 28 26 24 23 20 18 17 17 18 18 17 17 18 17 16 15 14 13 12 12 12 12 12 11 12 12 14 15 15 14 13 12 12 12 11 9 8 9 8 7 7 8 9 12 14 14 16 18 17 17 17 18 19 21 22 23 23 20 18 17 16 14 13 14 15
31 33 34 36 37 37 37 35 34 34 34 33 30 26 26 31 31 26 19 15 16 20 23 24 25 25 24 22 21 21 20 20 20 20 20 19 18 16 16 15 15 14 14 14 14 13 13 14 15 15 16 15 13 13 12 12 12 11 9 9 9 8 8 8 9 11 12 12 14 15 15 16 17 17 17 18 20 22 23 21 18 16 15 13 12 13 13
31 33 33 35 36 37 36 35 35 35 34 33 33 29 25 26 30 29 22 16 14 16 18 21 24 25 25 25 25 24 23 23 23 22 22 22 20 19 18 17 17 17 17 17 16 16 15 16 16 17 17 16 14 13 13 12 12 11 10 10 10 9 9 9 10 11 12 12 11 12 14 16 18 18 18 18 18 19 21 21 20 18 16 16 17 17 17
34 34 33 34 35 35 34 33 33 35 35 33 33 32 27 25 28 29 24 20 19 19 19 20 22 24 26 26 26 25 25 25 25 25 25 24 23 21 20 20 20 20 19 19 18 18 18 18 18 18 18 18 16 14 14 13 12 12 11 10 10 11 10 9 10 11 13 14 14 14 15 15 15 16 17 18 18 18 19 20 20 20 19 19 20 20 20
35 35 34 35 36 34 32 30 30 32 34 33 33 34 30 26 27 29 30 27 24 22 22 22 22 23 25 26 25 25 25 26 26 26 26 26 25 24 23 23 23 23 22 21 20 19 19 19 18 19 19 19 18 16 15 15 14 13 13 13 12 13 13 12 12 11 12 13 15 16 17 17 15 16 18 20 19 18 18 18 19 20 20 21 21 21 20
32 35 36 35 36 34 31 29 28 29 31 32 33 34 33 28 25 26 29 30 27 24 23 23 23 24 25 25 25 25 25 26 26 26 27 27 26 25 25 25 25 25 24 23 22 21 20 19 18 19 19 19 19 18 17 17 16 16 16 16 16 16 16 16 15 14 13 14 16 18 19 19 19 19 20 22 21 20 19 18 19 20 21 21 21 22 22
29 33 34 33 31 31 28 26 26 27 29 31 32 33 34 32 28 26 27 28 28 26 25 25 25 25 25 26 26 27 27 27 27 26 27 27 27 26 26 26 27 27 26 26 25 23 22 20 19 20 20 20 20 20 19 19 19 18 17 18 18 18 17 17 17 15 13 12 14 16 18 19 20 21 21 21 21 21 21 21 20 20 21 21 22 22 23
26 30 32 31 29 27 25 23 23 24 26 28 30 32 33 32 30 28 28 28 28 27 26 27 27 27 27 28 28 28 28 27 27 27 26 27 27 27 28 28 28 28 28 27 27 27 25 22 21 21 21 21 21 22 21 21 21 20 20 20 19 19 18 18 18 17 16 15 15 15 17 17 18 19 20 19 19 19 20 20 20 20 19 20 20 22 23
24 26 28 29 28 26 25 24 22 21 22 23 25 27 29 30 30 29 29 28 28 27 26 26 28 29 29 29 29 28 27 27 27 27 27 27 27 28 29 29 29 29 29 29 29 29 28 26 24 24 23 22 23 23 23 23 23 23 22 22 22 22 21 20 20 20 22 23 23 22 22 22 22 22 21 20 19 19 19 19 19 19 19 20 21 22 22
23 23 23 24 25 25 25 25 23 21 19 18 19 21 23 26 28 28 29 28 28 27 25 25 26 28 29 30 29 28 27 28 28 28 27 27 28 28 29 30 30 30 30 31 31 32 31 30 28 27 26 24 24 24 24 24 23 23 23 23 23 23 23 23 22 23 23 24 24 23 24 25 25 26 25 25 24 25 24 24 23 22 22 23 23 23 23
22 21 20 21 23 24 25 24 22 19 16 13 12 14 18 22 25 27 27 27 28 28 26 26 26 28 29 30 30 28 28 28 28 28 28 28 28 28 29 29 29 30 31 31 32 32 33 32 31 29 28 25 25 25 24 23 22 21 21 21 22 23 24 24 24 24 25 25 25 25 25 26 26 26 27 27 28 28 28 28 27 26 26 26 26 26 26
21 22 19 18 19 22 22 21 19 18 17 13 10 8 9 14 19 21 21 22 24 25 26 25 25 26 27 28 28 28 27 28 28 28 28 29 29 28 28 27 26 26 27 28 29 31 32 32 32 31 29 27 25 24 23 22 21 20 19 20 20 21 23 24 24 24 25 26 26 27 27 27 27 28 28 29 29 29 29 29 29 28 28 28 28 29 29
19 22 21 16 15 18 18 17 16 17 17 15 12 9 7 7 9 11 12 14 16 18 20 22 23 24 25 26 26 27 27 27 28 29 29 29 29 29 29 28 26 25 24 25 26 28 29 31 32 31 31 29 27 24 23 23 22 20 19 19 20 20 20 19 19 21 23 24 26 27 28 28 28 28 29 28 28 27 28 28 28 28 28 28 29 30 31
15 18 20 17 14 14 15 15 15 16 16 15 13 11 9 7 9 11 13 15 15 15 15 17 20 22 24 25 26 27 27 26 26 27 28 29 29 29 30 31 30 29 29 28 27 26 26 26 28 28 30 30 29 28 28 27 25 24 21 20 20 21 21 21 20 20 21 23 23 25 27 28 28 27 27 27 26 26 27 28 28 29 29 29 30 31 32
14 14 15 15 13 13 15 16 16 16 16 15 14 13 12 9 8 9 12 15 17 17 16 16 17 18 20 21 22 23 25 25 25 25 26 27 27 28 29 30 30 30 29 28 27 26 25 24 25 26 27 29 30 31 31 29 29 29 27 23 21 21 23 24 24 22 22 23 23 23 24 25 25 26 26 26 27 27 28 28 28 29 30 30 31 32 33
14 12 11 12 12 13 14 14 14 14 14 15 16 16 15 14 11 10 11 12 12 13 14 14 15 16 16 17 18 20 22 23 23 22 23 23 24 24 25 25 26 26 26 26 26 26 26 26 26 27 28 29 29 29 29 29 30 30 28 25 24 24 25 26 27 28 28 28 28 28 28 28 29 30 30 29 30 30 31 31 31 31 32 32 33 34 35
12 10 9 10 11 12 12 12 12 11 11 13 14 14 13 13 12 11 11 12 11 11 11 11 12 13 14 15 17 18 19 20 19 19 20 20 20 20 20 21 21 23 25 27 28 28 28 28 28 28 29 30 29 28 28 28 29 29 28 26 27 28 29 29 29 30 31 30 30 31 31 31 30 30 30 30 30 30 31 32 32 33 33 33 33 34 34
9 9 9 9 9 10 10 9 9 9 8 9 10 9 9 9 9 9 10 10 10 11 11 11 11 11 12 12 14 15 16 17 18 18 18 19 19 19 20 21 22 24 27 28 28 29 28 28 29 29 29 30 30 29 28 27 26 27 28 29 30 31 32 32 31 30 29 28 28 28 28 28 28 28 28 28 29 29 29 30 31 32 33 33 33 34 34
8 8 8 8 8 8 8 7 7 7 7 7 7 8 8 9 9 9 10 11 11 12 13 14 14 15 15 15 16 16 17 18 18 19 19 20 20 20 21 21 23 25 27 28 28 29 29 29 29 30 30 30 30 30 29 28 28 29 30 30 31 33 34 34 34 32 31 31 31 30 31 31 31 31 31 32 32 32 33 33 33 34 34 35 35 35 35
7 7 8 8 7 7 7 7 7 7 7 8 8 9 10 10 11 12 12 13 14 15 16 17 18 18 19 20 20 21 21 22 23 23 23 24 24 24 23 23 24 25 26 27 28 28 29 29 30 30 30 31 30 30 30 29 29 29 29 30 30 30 31 32 32 32 32 32 31 31 32 32 32 32 32 33 33 34 34 34 34 35 35 35 35 34 35
8 8 8 7 7 7 7 7 8 8 9 10 10 11 12 13 14 15 16 17 17 18 18 19 20 22 22 23 24 25 26 27 27 28 28 28 29 29 28 28 28 28 28 28 29 29 30 31 31 31 31 31 31 31 31 30 30 29 29 29 29 29 30 30 31 31 31 31 30 30 30 31 31 31 31 32 32 33 33 34 34 35 36 36 36 36 36
9 9 9 8 8 9 9 9 10 11 11 12 13 13 14 16 17 18 19 20 21 22 22 23 24 24 25 26 28 29 30 31 31 32 33 33 34 34 33 33 32 32 32 31 31 31 32 32 32 32 32 31 31 31 31 32 32 32 32 32 32 31 31 31 32 31 31 31 31 31 31 32 32 32 32 33 34 34 34 34 34 34 36 37 37 37 37
6 6 6 5 5 6 7 8 9 10 12 12 13 13 14 15 16 18 19 21 22 24 25 26 27 28 29 29 30 31 32 33 34 35 36 37 37 37 37 37 37 37 37 36 35 34 34 33 33 34 33 33 33 33 33 33 33 34 34 34 34 33 33 33 33 33 33 33 33 33 33 33 33 33 33 34 35 35 35 35 34 34 36 37 37 36 37
10 9 9 7 5 4 2 2 2 4 5 7 9 10 12 12 13 14 16 18 19 21 23 25 27 29 31 32 33 34 35 35 36 36 37 38 38 39 39 39 39 39 40 40 40 39 38 37 36 36 36 36 36 36 36 36 36 37 37 37 36 36 35 35 35 35 35 35 35 35 35 35 35 35 35 36 36 36 35 35 35 36 37 38 38 37 36
14 14 13 12 11 10 9 8 6 5 3 1 2 5 7 9 11 12 13 15 16 18 19 21 22 25 27 29 31 33 35 37 38 38 39 39 40 40 41 40 39 39 39 39 40 40 39 39 38 38 39 39 39 38 38 38 38 39 39 40 39 38 38 37 37 38 38 38 37 37 36 36 36 36 36 37 38 38 37 37 36 36 37 38 38 37 37
16 16 16 16 16 15 15 14 13 12 11 10 9 8 7 6 6 7 8 10 12 14 16 17 19 21 23 25 26 29 31 33 35 37 39 40 41 41 42 42 41 40 39 39 39 39 38 38 37 37 37 38 39 39 38 39 39 40 41 41 41 41 40 40 39 39 39 39 39 39 39 39 39 39 39 39 39 40 39 38 37 37 37 38 38 38 38
14 15 15 15 15 15 15 15 15 15 15 15 14 14 13 12 12 11 11 11 11 11 12 13 14 15 16 18 20 23 25 27 29 32 34 36 38 39 41 41 42 42 41 41 41 41 40 40 39 38 37 37 37 37 37 37 39 40 41 41 41 42 42 42 41 41 41 41 41 41 41 41 41 41 40 40 41 41 41 39 38 38 38 39 39 39 39
11 11 12 12 13 13 13 13 14 14 14 14 14 14 14 14 14 14 14 13 14 14 14 15 15 16 16 15 15 15 17 20 22 24 27 29 31 33 35 36 37 38 39 40 40 41 41 42 42 42 41 40 39 38 37 36 37 38 39 39 39 40 41 42 42 42 42 42 42 42 42 42 41 40 40 40 40 40 40 39 38 38 39 40 40 40 40
9 9 10 10 11 11 12 12 12 13 13 13 13 14 14 14 14 15 15 15 15 16 17 17 18 19 19 19 19 18 16 15 15 16 18 20 22 24 26 27 28 29 31 32 34 35 36 37 39 39 40 40 40 39 38 38 37 38 38 37 38 38 39 39 39 39 40 40 40 40 40 40 40 39 39 39 39 39 38 38 38 38 39 39 39 39 39
8 8 9 9 9 10 10 11 11 11 12 12 12 13 14 14 15 15 16 16 17 17 18 18 18 19 20 21 22 22 22 20 17 15 14 14 15 16 18 19 20 20 21 23 25 26 28 30 31 32 33 34 35 35 35 35 36 36 37 37 37 38 38 38 38 38 38 39 39 39 38 38 38 38 37 38 38 38 37 37 37 38 38 38 38 38 38
7 8 8 8 9 9 9 9 9 9 10 10 11 11 12 14 15 16 17 17 18 19 19 19 19 20 21 22 22 23 23 23 22 20 18 15 14 13 13 14 15 16 17 17 18 19 21 23 24 26 27 29 30 30 31 32 33 33 33 34 35 35 36 36 37 37 37 38 38 38 38 38 37 37 38 38 38 38 37 36 37 37 38 37 37 37 36
7 7 7 7 8 8 8 8 8 8 9 9 9 10 11 12 13 15 16 17 18 19 19 20 22 23 23 23 23 23 23 23 23 23 22 20 17 15 13 12 13 14 15 16 17 17 18 19 20 22 24 25 26 26 27 29 30 31 31 32 32 33 34 34 35 35 36 36 37 37 37 37 37 38 38 38 38 38 37 36 36 37 37 37 36 36 35
7 7 7 7 7 7 7 7 7 8 8 9 9 9 10 10 11 13 14 15 17 18 19 21 22 22 23 23 23 23 23 23 23 23 22 22 20 19 18 16 14 13 13 14 15 16 17 18 19 20 21 22 24 25 25 26 27 27 28 29 30 31 32 33 33 34 34 35 36 36 37 37 37 37 38 38 38 37 37 36 36 36 36 36 35 34 34
7 7 7 7 7 7 7 7 7 8 8 8 9 9 9 9 10 11 12 13 14 16 17 18 19 20 21 22 22 23 23 23 23 22 22 22 21 20 20 19 18 17 16 15 14 14 15 16 17 18 19 20 22 23 24 25 26 26 26 27 27 28 29 30 31 32 33 33 34 35 36 36 36 36 37 37 37 36 36 36 35 35 35 34 33 33 32
7 7 7 7 7 7 7 8 8 8 8 8 9 9 9 9 9 9 10 11 13 14 15 16 17 18 19 20 21 21 22 22 22 23 23 23 22 21 20 20 19 19 18 18 17 16 15 15 15 16 17 18 19 20 21 22 24 25 26 26 27 27 28 28 29 29 30 31 31 32 33 34 34 34 35 35 35 35 35 34 34 34 34 33 33 32 31
8 7 7 7 7 7 8 8 8 8 8 9 9 9 8 8 8 8 9 10 11 12 13 14 15 16 17 18 19 20 21 21 22 22 23 23 23 23 23 22 20 19 19 18 18 18 18 18 17 17 17 17 17 18 19 20 21 22 23 24 25 26 27 27 27 28 28 29 29 30 31 31 32 32 33 33 34 34 33 33 32 32 32 32 31 30 29
8 8 8 8 8 8 8 8 7 8 8 8 9 8 8 8 8 8 9 10 11 12 13 14 15 16 16 17 18 18 19 20 21 22 22 22 23 23 23 22 21 20 20 19 19 18 18 18 18 18 18 18 18 18 18 19 19 20 20 21 22 23 24 25 25 26 27 27 28 28 29 30 30 31 31 31 32 32 31 31 30 30 30 29 29 28 27
9 9 9 8 8 7 7 7 7 7 8 8 8 8 8 8 8 9 10 11 12 13 13 14 15 15 16 16 17 17 18 19 19 20 20 21 21 21 21 22 22 22 21 21 20 20 19 19 19 19 20 20 19 19 19 19 19 20 20 20 21 21 22 23 23 24 25 25 26 26 27 27 28 29 29 29 30 30 29 29 28 28 28 27 27 26 26
9 9 9 8 7 6 6 6 6 7 7 8 8 8 8 8 9 10 11 11 12 13 14 14 15 16 16 17 17 18 18 18 18 17 17 18 19 20 20 21 21 22 22 22 22 21 20 20 20 20 20 20 20 20 19 19 19 20 20 21 21 21 21 22 23 23 24 24 25 25 25 25 26 26 27 27 28 27 27 27 26 26 25 25 25 25 25
9 8 7 6 5 5 4 5 5 5 6 6 7 7 8 8 9 10 11 11 12 13 14 14 15 16 17 17 18 18 18 18 18 18 17 17 18 19 19 20 20 21 22 22 23 22 22 21 20 20 20 20 21 21 20 20 19 19 20 21 21 21 21 22 22 23 23 24 24 24 24 24 24 24 24 25 26 25 25 25 25 24 23 23 24 25 25
8 6 5 4 3 3 3 3 4 5 5 6 7 7 8 9 9 10 11 12 13 14 14 15 16 16 17 18 18 19 19 19 19 19 19 18 18 19 19 20 20 21 22 23 24 24 24 23 23 22 21 21 21 21 21 21 20 20 20 20 20 21 21 22 22 22 22 23 24 25 24 24 24 23 23 23 24 24 24 24 24 23 22 23 25 25 26
6 4 3 3 2 2 2 3 4 4 5 6 7 7 8 9 10 11 12 13 14 15 15 16 17 17 18 19 19 20 21 21 21 20 20 20 20 20 21 21 21 22 22 23 24 24 25 25 25 24 23 22 22 22 22 22 22 21 20 20 20 20 21 21 21 21 21 22 23 24 25 25 24 23 23 23 22 22 23 23 23 22 22 24 25 25 26
4 3 2 2 2 2 2 3 4 4 5 6 7 7 8 9 10 11 12 13 15 16 16 17 18 19 19 20 20 21 21 22 22 22 22 22 22 22 22 22 23 23 24 24 25 25 26 26 26 26 25 24 23 23 22 23 23 22 21 21 20 20 20 20 20 20 20 20 21 22 23 24 24 24 23 22 21 21 22 22 22 22 22 23 24 25 26
3 2 1 1 1 2 3 4 4 5 5 6 7 8 8 9 10 11 12 14 15 16 17 18 19 20 20 21 22 22 22 22 23 23 23 23 23 23 23 23 24 24 25 26 26 27 27 27 27 27 27 26 25 24 23 23 23 23 23 22 21 21 21 21 20 20 20 20 20 20 20 21 23 23 23 22 21 20 21 22 22 22 23 23 24 25 26
3 2 1 0 1 2 3 4 5 6 6 7 7 8 9 10 11 12 13 14 15 16 17 18 19 20 21 21 22 23 23 23 24 24 24 24 24 24 24 24 24 25 25 26 26 27 27 28 29 29 29 28 27 26 25 24 23 23 23 23 22 21 21 21 21 20 20 19 19 19 19 20 20 21 21 22 21 21 21 22 23 23 24 25 26 27 27
3 3 2 2 2 3 5 6 7 7 8 8 8 9 10 12 12 13 14 16 17 17 18 18 19 20 21 22 23 23 24 24 25 25 25 25 25 25 25 25 25 25 25 26 26 27 28 28 29 29 30 30 29 29 28 26 24 23 22 22 22 21 21 21 21 21 20 20 19 19 19 19 19 19 19 20 21 21 21 22 23 23 24 25 26 27 27
5 5 5 5 5 6 7 8 9 9 10 10 11 11 12 13 14 14 16 17 18 19 19 20 21 21 22 23 23 24 25 25 26 26 26 26 26 25 25 26 26 26 26 26 27 28 28 29 29 29 30 30 31 30 30 28 26 24 23 21 21 20 20 20 21 21 20 20 20 20 19 19 19 18 18 18 19 20 21 22 22 23 23 25 26 26 27
Wind_Direction
229 229 226 225 226 227 229 230 225 221 220 223 226 227 229 233 238 243 246 245 245 247 248 248 247 244 242 246 248 247 247 247 251 255 258 261 265 264 265 270 272 263 253 254 262 269 272 270 270 272 276 281 285 291 295 291 294 307 304 290 278 266 256 249 244 240 235 234 238 237 227 220 220 221 223 225 223 219 220 224 227 229 233 236 237 237 238
232 233 229 226 228 230 230 229 227 227 226 226 229 230 231 234 238 245 250 246 242 246 250 250 247 243 243 245 245 242 240 241 244 248 252 255 257 260 261 264 269 264 254 253 257 262 266 265 265 269 274 279 283 287 290 286 287 297 300 297 291 275 259 253 248 239 232 233 239 237 228 223 223 223 225 225 221 218 219 223 227 231 234 235 236 238 240
235 236 234 231 231 232 233 231 229 230 231 231 232 233 234 237 241 246 249 245 243 248 249 245 242 238 237 236 237 239 238 237 240 244 248 250 251 254 256 257 258 256 250 249 251 255 257 259 266 272 275 279 282 284 284 283 283 290 295 297 293 274 255 251 247 236 230 236 241 236 228 225 224 223 226 227 223 219 219 224 231 236 237 238 237 237 239
236 238 237 236 236 235 236 236 235 237 235 231 232 235 237 240 243 246 249 251 251 248 241 235 230 226 223 224 230 237 238 238 241 246 249 251 251 252 253 255 255 254 251 250 252 254 254 257 264 269 272 275 277 279 282 283 284 288 292 291 285 266 246 239 235 230 230 236 240 235 228 227 227 226 225 225 224 223 222 224 231 237 238 238 237 236 237
237 238 238 239 239 238 238 238 238 240 239 234 235 239 243 246 247 246 247 250 251 246 242 240 234 229 230 229 227 232 238 240 243 247 250 252 252 251 251 251 251 251 251 251 252 253 253 254 257 261 266 268 270 274 280 284 286 291 295 289 284 273 252 236 227 225 224 224 229 232 229 229 233 231 226 226 227 226 225 225 230 236 236 233 232 233 235
236 237 239 240 240 239 238 240 241 241 241 239 241 247 248 245 246 245 239 238 240 238 239 239 234 232 234 230 221 225 233 238 241 245 247 248 249 250 250 249 248 249 250 251 253 253 252 252 254 257 262 265 266 270 276 281 283 285 285 282 279 276 267 253 237 232 229 223 223 226 228 231 234 232 230 231 232 230 227 226 231 236 235 232 231 231 234
236 237 239 240 240 240 240 241 243 243 242 240 240 247 249 242 243 245 236 223 222 225 228 230 227 226 228 227 224 224 229 235 240 243 245 246 247 248 249 251 252 251 251 252 253 253 253 252 252 253 257 261 264 269 273 278 282 282 281 281 280 271 262 257 249 241 239 233 225 223 228 231 228 227 228 230 232 230 224 222 226 232 237 244 246 243 243
236 237 239 239 239 240 241 242 241 242 244 241 237 242 248 244 242 242 234 225 225 225 223 223 223 222 223 225 226 227 231 237 241 243 246 247 247 247 248 252 254 254 253 253 253 253 253 253 253 253 255 258 261 266 272 276 280 283 281 278 275 269 261 255 252 247 243 240 233 230 235 235 230 228 229 228 229 229 225 223 227 233 243 253 256 253 251
239 239 240 239 238 239 240 241 241 241 244 244 239 240 247 248 245 240 235 238 244 240 232 227 224 224 224 226 229 230 232 236 240 242 244 246 247 248 249 252 255 256 256 255 254 253 252 252 253 255 256 258 259 262 268 272 275 275 273 269 266 266 263 254 250 249 242 236 234 232 234 239 239 236 237 236 234 231 228 228 229 231 238 244 246 247 247
239 239 239 238 238 239 240 241 241 242 244 244 241 241 245 249 248 244 242 247 250 244 238 235 231 229 229 230 233 234 235 237 239 239 241 244 246 247 249 253 256 258 259 259 258 257 256 255 256 256 257 259 260 261 264 267 268 266 265 264 262 261 262 259 255 254 246 237 232 229 230 234 232 225 227 233 235 232 229 226 225 228 233 238 242 245 246
238 239 240 239 239 241 243 243 242 242 244 245 243 243 244 246 248 247 244 245 248 244 238 238 238 236 235 235 236 238 238 238 237 237 239 243 245 246 249 253 257 259 261 262 262 261 259 258 257 258 259 260 260 260 261 261 262 261 260 261 261 259 260 258 256 256 256 251 244 239 235 232 227 221 224 232 238 241 241 238 236 237 239 241 244 247 249
235 238 239 239 240 241 241 242 242 243 245 246 245 245 246 247 249 248 242 240 243 243 240 238 238 238 236 235 236 237 238 238 238 238 240 242 245 247 248 251 256 258 260 262 263 263 262 261 260 259 261 262 262 262 261 260 260 261 261 260 259 257 255 254 253 255 258 253 243 239 237 235 233 234 236 239 243 246 248 247 245 244 243 243 245 248 252
235 238 236 236 239 238 236 236 237 240 244 247 247 247 248 248 246 242 238 236 238 240 240 239 238 237 236 235 235 236 237 239 241 241 242 243 246 248 249 251 253 256 258 260 262 263 264 262 260 260 261 262 263 263 264 263 261 260 258 258 258 256 253 250 248 246 245 244 245 248 249 248 245 242 241 241 244 246 247 247 248 248 249 250 251 254 257
234 236 233 233 236 237 235 234 237 241 245 249 250 247 246 245 242 237 234 233 235 237 238 238 237 236 235 235 235 237 238 240 242 242 242 243 245 247 250 251 253 255 257 259 261 263 264 262 262 263 264 262 261 261 261 265 266 265 261 259 259 258 256 253 251 248 246 249 255 260 260 257 254 251 248 249 251 251 251 252 254 256 256 256 257 258 260
227 230 230 231 232 232 231 232 236 242 246 247 246 243 239 238 238 236 234 233 234 235 234 233 235 236 237 237 237 238 240 241 242 242 242 244 245 247 249 252 253 255 257 259 261 263 264 265 266 267 268 267 266 264 260 258 260 261 261 260 260 260 259 257 254 252 251 252 256 258 257 254 253 252 253 254 255 255 257 258 258 258 258 257 258 258 258
223 227 228 230 229 227 227 229 234 238 237 228 225 230 234 235 234 234 234 232 233 234 232 232 236 238 239 239 239 240 243 245 245 245 245 247 248 248 250 253 255 256 258 261 263 265 266 268 268 268 269 270 270 271 269 264 261 259 258 260 263 265 264 263 260 256 255 255 254 254 255 255 252 249 249 249 250 253 255 256 255 255 254 254 255 255 254
220 218 217 218 215 215 218 221 223 226 223 214 203 204 222 232 231 231 234 234 233 233 232 232 236 240 243 244 244 245 247 249 249 248 248 249 250 250 251 254 257 259 260 263 265 266 266 266 266 266 267 268 269 270 270 268 266 266 265 264 265 265 265 266 266 262 259 257 255 253 252 253 252 250 249 250 250 251 253 255 255 254 254 254 253 251 248
218 217 219 217 209 207 210 209 209 214 216 213 209 199 193 197 200 207 223 231 232 234 235 232 232 235 239 242 244 246 248 250 251 251 250 249 250 249 249 250 253 257 261 266 270 270 266 265 265 265 265 267 268 265 260 255 253 258 265 267 264 261 258 257 259 260 259 257 256 255 253 252 250 249 249 249 249 249 251 253 254 256 257 257 255 252 249
214 218 221 224 221 218 217 212 209 213 216 215 214 211 198 172 163 175 190 197 201 214 230 235 234 234 237 240 242 245 247 249 250 251 252 251 250 248 248 249 251 254 259 265 268 267 264 264 265 265 264 264 263 260 257 256 254 257 265 268 264 261 258 255 257 259 259 256 256 258 256 251 247 247 249 251 253 255 256 257 259 259 259 258 257 255 253
202 205 208 213 215 215 216 213 210 213 215 211 206 205 201 184 173 182 187 186 191 201 211 221 229 233 236 240 243 246 249 249 248 249 251 252 251 250 250 251 253 255 258 261 261 260 260 262 263 262 260 258 258 258 259 260 259 259 260 259 257 255 254 255 258 262 261 258 256 256 254 250 249 255 259 261 262 264 265 265 265 264 263 261 259 257 255
192 184 180 183 187 189 194 197 198 202 204 199 197 201 199 189 182 187 188 187 192 198 200 206 214 216 217 221 228 238 248 252 252 251 250 251 251 252 253 254 254 253 253 253 254 255 257 259 261 263 262 260 259 258 257 257 257 257 256 253 252 250 249 252 258 262 264 262 257 253 252 254 257 261 263 263 263 263 263 264 264 263 263 263 262 261 260
195 186 170 161 163 168 170 173 176 180 185 191 197 206 207 201 197 199 199 197 198 201 204 208 212 212 211 213 218 228 239 247 249 249 249 249 249 250 250 250 249 247 245 245 247 250 252 253 254 257 261 264 264 263 260 257 257 256 253 250 249 247 247 248 250 253 255 255 253 252 253 255 258 261 263 263 263 263 262 262 261 261 261 262 262 262 261
181 179 171 161 160 162 163 165 170 177 183 193 203 215 224 227 228 228 227 227 226 226 229 232 235 239 241 237 235 236 238 240 241 241 242 242 241 240 240 240 241 241 241 242 243 244 245 245 245 246 250 254 258 260 260 258 256 255 254 251 248 247 246 245 243 242 242 242 243 245 247 249 250 252 254 256 258 259 259 260 259 260 260 261 262 263 263
163 164 164 164 165 167 170 174 181 188 197 205 214 225 236 245 249 250 250 253 254 254 256 256 256 258 259 259 258 256 255 254 254 253 252 250 247 244 240 238 239 240 240 241 241 242 242 243 242 242 244 247 250 252 252 250 249 249 249 249 248 248 247 248 247 245 244 244 244 244 247 249 251 251 252 255 257 259 261 261 262 263 265 266 268 268 269
175 175 175 178 181 185 191 199 208 216 224 230 237 242 247 254 260 262 262 263 262 264 266 266 265 265 264 264 263 262 261 261 260 260 260 260 260 258 254 251 250 249 248 246 245 246 249 249 248 248 249 251 252 253 253 252 251 251 251 251 252 252 252 252 252 253 254 254 255 255 255 257 259 260 260 261 262 263 265 265 267 268 269 270 271 271 272
181 182 185 190 195 202 209 218 227 236 242 247 251 254 257 260 263 265 267 268 267 267 267 266 266 267 267 267 266 265 264 264 263 262 261 260 260 260 259 259 259 259 258 257 255 255 255 255 254 254 255 256 257 257 258 258 258 258 257 256 255 255 256 256 257 258 259 260 261 262 262 263 264 265 265 264 263 263 264 266 267 269 270 271 272 273 275
199 201 204 206 210 215 221 228 235 242 248 253 255 258 260 262 263 264 266 267 268 269 269 268 267 266 265 264 264 264 265 265 266 266 265 264 263 262 260 259 259 259 258 259 259 260 260 260 258 256 257 258 259 260 260 260 261 261 260 259 259 259 259 259 260 261 262 263 263 264 264 264 264 264 265 265 265 265 266 267 267 268 270 271 271 272 274
171 176 179 185 199 212 223 231 236 242 247 252 257 260 263 264 265 265 264 265 265 265 266 266 267 266 265 264 264 263 263 263 263 264 265 265 265 265 264 264 263 262 260 258 256 257 258 258 258 257 257 258 260 261 262 262 262 262 261 261 261 261 261 262 263 262 262 262 262 262 262 263 264 264 265 266 266 267 269 269 269 269 270 270 269 269 271
118 117 116 114 115 121 136 183 226 247 257 262 268 272 274 276 277 277 276 274 272 270 269 268 267 266 265 265 264 263 263 262 261 262 263 263 263 263 264 264 265 266 265 263 261 260 259 258 257 256 256 257 259 260 261 260 260 260 260 260 260 260 260 262 263 263 264 264 263 263 263 264 265 265 266 266 266 267 267 267 268 269 270 271 271 271 271
103 102 101 99 98 96 93 89 86 80 67 26 318 299 293 291 292 293 292 290 287 285 282 279 276 274 272 270 268 267 265 264 263 262 262 262 262 262 262 262 263 263 263 263 263 263 263 263 262 261 260 260 260 260 259 258 257 257 257 258 258 259 259 259 260 261 262 263 264 264 265 266 266 266 266 267 267 267 265 265 266 267 269 271 272 272 273
95 94 93 91 89 86 83 80 78 76 72 67 61 52 38 19 356 338 326 317 310 305 300 295 291 287 284 280 277 274 271 269 267 266 265 264 263 263 262 262 261 261 260 260 260 259 259 260 260 260 261 262 262 261 260 258 257 256 255 255 256 257 257 258 258 259 259 260 261 262 263 264 265 266 267 268 268 269 268 267 267 268 269 271 272 273 274
87 87 86 84 83 81 78 76 73 71 68 66 63 60 57 52 46 38 30 21 10 359 348 338 329 318 309 301 293 286 281 277 273 270 268 267 266 265 264 263 262 261 261 261 260 258 257 257 257 257 257 258 260 260 259 257 256 256 256 256 255 254 254 255 256 257 258 259 259 259 260 261 262 263 264 265 267 269 270 270 269 269 270 270 272 273 274
84 84 83 81 79 77 74 71 68 65 63 61 59 57 55 52 49 45 41 37 33 28 24 18 11 4 357 348 334 318 304 293 285 279 275 272 269 268 266 265 264 263 263 262 261 261 260 259 259 259 260 260 260 260 260 259 259 258 258 258 257 256 255 254 255 256 257 258 258 258 259 260 261 262 263 264 265 266 268 268 268 268 268 268 269 270 271
88 86 83 80 77 74 71 69 66 63 60 57 54 52 50 47 45 41 37 34 31 29 27 25 22 19 18 16 12 5 354 337 319 304 294 286 280 276 273 271 270 268 266 264 263 262 262 262 262 262 262 262 263 263 262 262 262 261 261 261 261 260 259 258 258 258 259 259 258 258 259 259 260 261 262 263 264 264 265 265 266 265 266 266 266 267 267
92 90 87 83 79 75 71 68 65 62 59 56 52 49 47 45 42 39 36 33 30 28 25 23 21 21 22 22 22 20 17 12 3 349 333 318 305 294 286 282 280 278 275 272 268 266 264 263 263 263 263 263 263 264 263 263 262 262 262 262 261 261 262 261 261 260 260 260 260 261 261 261 261 262 262 262 262 262 262 263 263 263 263 264 264 264 264
96 95 92 88 83 78 73 68 63 58 54 51 48 46 44 42 40 38 36 34 32 30 27 23 22 22 23 22 22 22 22 21 19 14 6 356 342 326 310 298 291 287 284 281 277 273 268 264 263 263 263 263 262 262 262 261 261 261 261 261 260 260 260 260 259 259 258 259 260 260 260 260 260 260 260 259 260 260 261 261 261 261 261 262 262 262 263
103 100 96 91 85 79 72 65 59 52 47 44 42 40 39 38 37 36 35 34 32 31 28 26 23 23 21 20 19 20 21 21 20 20 19 16 9 359 347 331 314 302 293 288 284 281 276 271 266 263 263 263 264 263 262 261 261 260 260 259 259 258 258 258 257 257 257 257 257 257 258 257 257 257 257 257 258 259 259 258 258 259 260 260 260 261 262
107 103 97 90 83 76 69 60 53 47 41 39 37 37 36 36 35 34 34 34 33 32 29 26 23 21 20 19 18 18 17 18 17 18 20 21 19 15 10 4 354 341 326 311 299 291 285 279 274 270 266 265 265 265 265 265 264 264 262 261 261 260 260 259 258 258 257 257 257 257 257 257 257 257 257 257 257 257 257 256 256 257 258 259 260 261 262
108 102 95 88 81 74 66 57 51 46 41 38 37 37 37 36 35 33 32 33 33 31 30 27 25 23 21 20 18 16 15 15 14 13 13 16 18 17 15 13 10 6 360 351 339 323 308 297 289 282 277 272 270 268 267 267 266 266 266 266 265 264 263 262 262 261 260 260 260 260 260 259 258 258 258 258 257 257 257 256 256 256 257 258 259 260 261
108 101 95 88 82 74 66 58 51 46 42 38 38 38 38 39 37 34 31 29 28 27 26 26 25 23 21 19 18 17 15 13 11 9 8 8 11 12 12 11 10 8 6 3 359 352 343 331 319 307 296 287 281 276 273 271 270 269 268 267 267 266 266 265 264 263 262 261 261 261 261 261 260 259 259 259 258 258 257 257 257 257 258 258 258 258 258
110 105 98 91 84 76 68 61 54 48 43 40 40 40 39 38 35 32 28 25 23 20 18 17 17 18 17 15 13 13 12 11 10 8 6 5 4 5 5 6 5 3 1 360 358 356 352 348 343 336 326 314 302 292 285 280 277 275 274 273 271 270 269 268 267 267 266 265 263 262 262 263 262 261 261 260 259 259 258 258 258 258 258 258 258 257 256
114 110 102 95 88 80 72 65 57 51 45 43 42 41 39 35 29 24 20 17 15 13 11 9 8 9 10 10 10 9 8 7 6 5 4 3 2 0 359 358 358 357 356 355 354 353 350 347 345 343 339 334 325 315 304 295 288 284 282 280 279 277 275 273 272 270 269 268 266 265 265 265 265 264 264 263 262 262 260 259 259 258 258 257 257 256 254
118 113 106 100 93 85 77 70 61 54 50 46 43 41 37 32 26 20 16 13 10 8 6 5 4 3 3 4 5 5 4 3 2 1 360 358 356 355 354 352 351 351 351 350 349 349 348 346 344 341 339 337 333 328 320 311 303 296 291 287 285 283 281 279 277 274 272 270 269 267 267 266 266 267 266 265 264 264 263 261 259 259 258 257 255 253 251
122 117 112 106 100 90 81 73 63 55 49 43 38 34 29 25 20 16 14 13 10 8 5 2 0 359 360 360 360 360 359 358 358 360 358 354 350 349 349 348 346 346 345 344 344 344 344 343 340 337 335 334 332 330 326 320 312 305 299 294 291 288 285 283 280 278 276 273 271 269 268 267 266 267 267 267 266 265 264 262 260 257 256 255 254 251 249
126 121 115 109 102 91 79 68 56 47 40 33 27 21 15 11 8 6 7 7 6 5 4 1 358 356 355 355 356 356 355 353 352 353 354 351 347 344 344 344 343 342 341 340 339 340 340 337 335 332 330 328 327 327 327 324 319 312 305 299 294 292 289 287 284 282 280 278 275 272 270 269 268 267 267 267 267 266 264 263 260 258 255 252 249 247 246
129 123 114 106 96 80 64 50 40 32 25 21 17 12 8 5 2 360 0 1 360 359 358 357 355 353 352 351 350 350 351 350 349 348 347 346 344 341 340 340 339 339 339 338 337 336 335 334 333 332 330 327 324 322 322 322 321 318 312 306 300 295 291 289 287 284 282 280 278 275 273 271 269 268 267 267 266 265 264 262 261 257 252 248 246 246 244
130 120 108 94 72 49 35 25 21 19 16 14 12 8 5 2 360 358 357 356 355 353 353 352 350 350 349 348 347 347 346 346 346 345 343 341 339 338 337 336 335 335 336 335 333 331 331 332 331 331 330 328 324 320 317 317 317 318 316 312 307 301 296 291 288 285 282 281 279 278 276 274 271 269 267 267 266 263 261 259 258 255 251 247 246 245 243
133 119 105 83 50 32 20 10 8 8 7 5 5 3 2 360 358 356 354 353 352 350 350 349 348 347 346 345 345 344 344 343 342 342 341 339 337 334 333 332 332 331 331 331 330 329 329 330 329 329 328 327 325 321 318 314 313 312 313 312 309 306 302 296 291 287 283 280 278 276 275 273 272 269 267 265 264 262 259 257 254 252 250 248 246 243 241
142 131 121 90 47 26 11 358 354 353 352 352 353 354 353 352 350 349 350 350 350 348 348 347 346 345 343 342 342 341 341 340 339 339 339 338 336 333 331 329 329 328 327 327 327 326 326 326 326 326 326 326 324 323 320 315 311 309 308 307 307 306 305 302 298 294 289 285 281 278 275 273 272 270 267 264 261 260 259 257 254 250 247 245 242 240 239
168 165 162 89 21 2 350 343 337 335 336 337 339 341 342 341 341 342 344 346 347 346 345 344 343 342 341 340 339 338 338 337 337 336 336 336 335 333 330 328 326 325 323 323 322 322 322 322 323 323 324 324 323 321 319 317 313 309 307 305 305 304 303 302 301 299 296 291 288 284 280 277 275 273 271 267 263 258 256 256 255 252 247 242 239 237 237
203 212 230 268 305 318 326 328 326 325 323 322 322 326 331 332 333 335 337 340 341 342 342 341 340 340 339 338 337 336 335 335 335 334 333 333 333 331 328 326 324 323 321 320 319 319 319 319 320 320 320 321 320 319 318 317 314 310 307 305 304 303 301 299 298 298 297 296 293 290 286 283 279 275 272 269 266 261 259 258 258 254 248 243 239 238 238
234 246 259 272 286 298 308 315 318 318 317 314 314 318 324 327 328 330 332 334 336 337 338 338 338 337 337 336 336 335 334 333 332 332 331 330 329 328 326 324 323 322 320 318 317 317 316 316 317 317 318 318 317 317 317 316 314 311 307 304 303 302 301 299 296 294 294 294 293 292 291 289 287 283 278 273 269 265 263 262 259 252 244 239 237 237 239
Height
5672 5673 5675 5678 5680 5682 5684 5686 5688 5689 5691 5692 5693 5694 5694 5696 5698 5699 5700 5703 5706 5707 5708 5710 5712 5713 5713 5713 5714 5714 5715 5715 5716 5716 5717 5717 5718 5719 5719 5719 5719 5720 5721 5722 5723 5724 5725 5726 5727 5727 5728 5728 5728 5729 5730 5730 5730 5730 5729 5729 5729 5730 5731 5732 5732 5733 5734 5735 5737 5738 5739 5740 5741 5742 5744 5746 5747 5749 5750 5752 5754 5755 5756 5757 5758 5758 5759
5668 5669 5672 5675 5676 5678 5681 5683 5684 5686 5688 5690 5691 5691 5692 5694 5696 5697 5699 5700 5703 5705 5706 5708 5709 5711 5712 5712 5712 5712 5712 5713 5714 5715 5715 5716 5716 5717 5718 5718 5718 5719 5720 5721 5722 5723 5724 5725 5726 5726 5727 5727 5728 5728 5728 5728 5728 5728 5727 5727 5728 5728 5729 5730 5730 5731 5732 5733 5735 5736 5737 5738 5739 5740 5742 5743 5745 5746 5748 5750 5752 5753 5754 5754 5755 5756 5758
5665 5666 5669 5672 5673 5675 5677 5679 5680 5682 5684 5686 5687 5689 5691 5693 5694 5696 5697 5698 5700 5702 5703 5704 5706 5708 5709 5710 5710 5710 5711 5711 5712 5713 5714 5714 5715 5715 5716 5717 5717 5718 5719 5720 5721 5722 5723 5723 5724 5725 5725 5726 5726 5727 5727 5727 5727 5726 5725 5726 5726 5726 5727 5728 5728 5729 5730 5732 5733 5734 5735 5735 5737 5738 5739 5741 5742 5744 5746 5748 5749 5751 5751 5751 5753 5755 5756
5661 5663 5665 5668 5669 5671 5673 5675 5677 5679 5681 5682 5684 5685 5688 5690 5692 5694 5695 5696 5699 5700 5701 5702 5704 5706 5707 5707 5708 5708 5709 5709 5710 5711 5712 5713 5713 5714 5715 5715 5716 5717 5718 5718 5719 5720 5721 5722 5723 5723 5724 5724 5725 5726 5726 5725 5725 5724 5723 5723 5724 5724 5725 5726 5727 5728 5729 5731 5731 5732 5733 5733 5734 5736 5737 5738 5739 5741 5743 5745 5747 5748 5748 5749 5751 5753 5754
5658 5660 5662 5663 5665 5667 5669 5671 5674 5676 5678 5680 5681 5682 5684 5687 5689 5690 5692 5694 5696 5697 5699 5701 5702 5703 5704 5705 5706 5707 5707 5708 5709 5710 5710 5711 5712 5713 5713 5714 5715 5715 5716 5717 5718 5719 5720 5721 5721 5722 5722 5723 5724 5724 5724 5724 5723 5722 5722 5722 5722 5723 5724 5724 5725 5726 5728 5730 5730 5729 5730 5732 5732 5733 5734 5735 5737 5739 5741 5743 5745 5745 5746 5747 5749 5750 5751
5655 5657 5659 5660 5661 5664 5666 5668 5671 5673 5675 5677 5679 5680 5681 5683 5685 5686 5688 5690 5692 5694 5696 5697 5699 5700 5701 5703 5704 5705 5705 5706 5707 5708 5708 5709 5710 5711 5712 5712 5713 5714 5715 5715 5716 5717 5718 5719 5720 5720 5721 5721 5722 5723 5722 5722 5721 5721 5721 5721 5721 5722 5723 5723 5724 5724 5725 5728 5729 5728 5728 5730 5731 5731 5732 5733 5735 5736 5738 5740 5742 5743 5744 5745 5746 5748 5749
5652 5654 5655 5656 5657 5660 5662 5665 5667 5669 5671 5674 5676 5677 5678 5679 5681 5683 5685 5687 5688 5690 5692 5694 5695 5697 5698 5700 5701 5702 5703 5704 5705 5706 5706 5707 5708 5709 5710 5710 5711 5712 5713 5714 5714 5715 5716 5717 5718 5719 5719 5720 5720 5720 5720 5720 5720 5720 5720 5720 5720 5721 5722 5722 5722 5722 5723 5725 5726 5727 5727 5728 5729 5729 5730 5731 5732 5734 5736 5738 5740 5741 5742 5743 5744 5745 5746
5648 5649 5650 5652 5654 5656 5659 5661 5664 5665 5667 5670 5672 5674 5675 5676 5677 5680 5682 5684 5686 5688 5689 5691 5692 5694 5695 5697 5698 5699 5701 5702 5703 5704 5704 5705 5706 5706 5707 5708 5709 5709 5711 5711 5712 5713 5714 5715 5716 5716 5717 5717 5718 5718 5718 5718 5719 5719 5719 5719 5719 5719 5720 5721 5721 5721 5722 5723 5724 5725 5726 5726 5727 5728 5728 5729 5731 5732 5734 5736 5737 5738 5739 5740 5741 5742 5743
5643 5645 5647 5649 5650 5653 5655 5658 5660 5662 5663 5666 5669 5671 5672 5673 5675 5676 5679 5681 5683 5685 5687 5688 5690 5692 5693 5694 5695 5697 5698 5699 5700 5701 5702 5702 5703 5704 5705 5705 5706 5707 5708 5709 5710 5711 5711 5712 5713 5714 5715 5715 5715 5716 5716 5716 5717 5717 5717 5717 5717 5718 5718 5719 5720 5720 5721 5721 5723 5724 5724 5725 5726 5726 5727 5728 5729 5730 5732 5733 5735 5736 5736 5737 5737 5738 5739
5639 5641 5643 5645 5647 5649 5652 5655 5657 5659 5660 5662 5665 5667 5669 5671 5672 5674 5676 5678 5680 5682 5684 5686 5688 5689 5691 5692 5693 5695 5696 5697 5698 5699 5699 5700 5701 5702 5702 5702 5703 5704 5705 5706 5707 5708 5709 5710 5711 5711 5712 5712 5712 5713 5713 5714 5714 5715 5715 5715 5716 5716 5717 5718 5718 5719 5720 5720 5721 5722 5722 5723 5724 5724 5725 5726 5727 5728 5729 5730 5732 5733 5733 5734 5734 5735 5736
5635 5636 5639 5641 5644 5646 5649 5651 5654 5656 5657 5658 5661 5663 5665 5667 5670 5671 5673 5675 5677 5679 5681 5683 5685 5686 5688 5690 5691 5692 5693 5693 5694 5695 5696 5697 5698 5699 5700 5700 5700 5700 5701 5702 5704 5705 5706 5707 5708 5708 5709 5709 5709 5710 5711 5711 5712 5712 5713 5714 5714 5715 5716 5716 5716 5717 5718 5719 5719 5720 5720 5721 5722 5722 5723 5723 5724 5725 5726 5727 5728 5730 5730 5731 5732 5732 5732
5631 5633 5636 5639 5641 5643 5646 5648 5650 5652 5654 5655 5657 5658 5661 5664 5667 5669 5670 5672 5674 5675 5678 5680 5681 5683 5685 5686 5687 5688 5689 5690 5691 5692 5693 5694 5695 5696 5697 5697 5697 5697 5698 5699 5699 5700 5702 5703 5705 5705 5706 5706 5706 5707 5708 5709 5709 5710 5711 5712 5712 5713 5713 5714 5714 5715 5716 5716 5716 5717 5718 5719 5720 5720 5720 5721 5722 5722 5723 5724 5725 5726 5727 5728 5729 5729 5729
5629 5630 5633 5636 5638 5641 5643 5646 5647 5649 5650 5651 5653 5655 5658 5661 5663 5665 5667 5669 5671 5672 5674 5676 5678 5679 5681 5682 5683 5685 5686 5687 5688 5689 5690 5691 5692 5692 5693 5693 5694 5694 5694 5695 5696 5696 5697 5699 5701 5701 5702 5703 5703 5704 5704 5705 5706 5707 5708 5709 5709 5710 5711 5712 5712 5714 5714 5714 5714 5715 5716 5717 5718 5718 5718 5719 5719 5720 5721 5722 5723 5724 5725 5726 5726 5726 5727
5627 5628 5630 5633 5636 5638 5640 5643 5645 5646 5647 5648 5650 5652 5654 5656 5657 5660 5663 5665 5667 5669 5670 5672 5673 5675 5677 5678 5680 5681 5683 5683 5684 5685 5686 5687 5688 5689 5689 5690 5690 5691 5691 5691 5692 5692 5693 5695 5696 5697 5699 5699 5700 5700 5701 5702 5702 5703 5704 5705 5706 5707 5708 5709 5710 5711 5712 5712 5712 5712 5713 5715 5715 5716 5716 5717 5718 5718 5719 5720 5721 5722 5723 5723 5724 5724 5724
5625 5626 5628 5631 5633 5635 5638 5640 5642 5643 5645 5646 5647 5648 5650 5651 5653 5656 5659 5661 5663 5665 5667 5669 5670 5671 5673 5674 5676 5677 5679 5679 5680 5681 5683 5684 5684 5685 5686 5686 5687 5687 5688 5688 5688 5689 5689 5691 5692 5693 5694 5695 5696 5696 5697 5698 5699 5699 5700 5701 5702 5703 5704 5705 5707 5707 5708 5709 5709 5709 5709 5711 5712 5712 5713 5714 5715 5715 5716 5717 5718 5719 5720 5720 5721 5721 5721
5623 5625 5627 5629 5631 5633 5635 5637 5639 5641 5643 5644 5645 5645 5646 5648 5650 5652 5654 5657 5659 5661 5663 5665 5667 5668 5669 5670 5672 5673 5674 5675 5676 5677 5679 5680 5681 5681 5682 5683 5683 5684 5684 5685 5685 5685 5686 5687 5688 5689 5690 5692 5693 5693 5693 5694 5695 5695 5696 5697 5698 5699 5700 5701 5702 5703 5704 5705 5706 5706 5706 5707 5707 5708 5709 5709 5710 5711 5712 5713 5714 5715 5716 5717 5718 5718 5719
5622 5624 5626 5627 5629 5631 5633 5635 5637 5639 5641 5642 5643 5644 5644 5645 5646 5648 5651 5653 5655 5657 5659 5661 5663 5664 5665 5666 5668 5669 5670 5671 5672 5673 5675 5676 5677 5678 5679 5679 5680 5680 5681 5681 5682 5682 5683 5683 5684 5685 5686 5688 5689 5691 5691 5691 5691 5692 5693 5694 5695 5696 5697 5697 5698 5699 5700 5701 5702 5702 5702 5703 5704 5704 5705 5705 5706 5708 5708 5709 5710 5711 5713 5714 5714 5715 5715
5621 5623 5624 5626 5627 5629 5631 5633 5635 5636 5639 5641 5642 5643 5643 5644 5645 5646 5648 5650 5652 5653 5655 5657 5659 5661 5662 5663 5664 5665 5666 5667 5668 5669 5671 5672 5673 5674 5675 5675 5676 5677 5678 5678 5679 5679 5679 5680 5680 5681 5682 5684 5686 5687 5688 5688 5689 5689 5690 5691 5692 5692 5693 5694 5694 5695 5696 5697 5698 5698 5699 5699 5701 5701 5702 5702 5703 5704 5705 5705 5706 5707 5709 5710 5710 5710 5711
5620 5622 5623 5624 5625 5627 5629 5631 5633 5635 5637 5639 5640 5641 5642 5643 5644 5645 5647 5648 5650 5651 5652 5654 5655 5656 5657 5659 5660 5661 5662 5663 5664 5665 5666 5667 5669 5670 5671 5672 5673 5674 5675 5675 5676 5676 5677 5677 5678 5678 5679 5680 5682 5683 5684 5685 5686 5687 5687 5688 5688 5689 5689 5690 5691 5692 5692 5693 5694 5694 5695 5696 5697 5698 5698 5699 5700 5700 5701 5701 5702 5703 5704 5705 5706 5706 5706
5619 5620 5621 5623 5624 5626 5627 5629 5631 5633 5635 5637 5639 5640 5641 5642 5643 5644 5646 5647 5649 5650 5651 5651 5652 5653 5654 5655 5656 5657 5658 5659 5661 5662 5662 5664 5665 5666 5667 5668 5669 5671 5671 5672 5673 5673 5674 5674 5675 5676 5676 5677 5678 5679 5680 5681 5683 5683 5684 5685 5686 5686 5686 5686 5687 5688 5689 5690 5691 5691 5691 5692 5693 5694 5695 5695 5696 5696 5696 5697 5697 5698 5699 5700 5701 5701 5701
5618 5619 5620 5622 5623 5625 5626 5628 5630 5631 5633 5635 5637 5639 5640 5641 5642 5642 5644 5645 5647 5648 5649 5649 5650 5651 5652 5653 5654 5654 5655 5656 5657 5658 5659 5660 5661 5662 5663 5664 5666 5667 5668 5668 5669 5670 5671 5671 5672 5672 5673 5673 5674 5675 5676 5677 5678 5679 5680 5682 5683 5683 5683 5683 5683 5684 5685 5686 5687 5687 5687 5688 5688 5689 5689 5690 5691 5691 5691 5692 5692 5693 5694 5694 5695 5696 5696
5617 5619 5620 5622 5623 5625 5626 5628 5629 5631 5632 5634 5636 5637 5639 5640 5640 5641 5642 5643 5644 5645 5646 5647 5648 5649 5649 5650 5651 5652 5653 5653 5654 5655 5656 5656 5657 5659 5660 5661 5662 5663 5664 5664 5665 5667 5668 5669 5669 5670 5670 5670 5670 5670 5671 5672 5673 5674 5676 5677 5679 5679 5679 5679 5679 5680 5680 5681 5682 5683 5683 5683 5683 5684 5684 5685 5685 5686 5686 5687 5687 5688 5688 5689 5690 5690 5690
5618 5619 5620 5622 5623 5624 5626 5627 5629 5630 5632 5633 5635 5636 5637 5638 5639 5640 5641 5642 5643 5643 5644 5645 5646 5647 5647 5648 5649 5650 5651 5651 5652 5653 5653 5654 5655 5656 5657 5658 5659 5659 5660 5661 5662 5664 5664 5665 5665 5666 5666 5666 5666 5667 5667 5668 5669 5670 5671 5672 5674 5674 5675 5675 5675 5675 5676 5676 5677 5678 5679 5679 5679 5680 5680 5681 5681 5681 5682 5682 5683 5683 5683 5684 5684 5685 5685
5618 5619 5620 5621 5623 5624 5625 5627 5628 5630 5631 5632 5634 5635 5636 5637 5638 5639 5639 5640 5641 5642 5642 5643 5644 5645 5646 5646 5647 5648 5649 5649 5650 5650 5651 5651 5652 5653 5654 5655 5655 5656 5656 5657 5658 5660 5660 5660 5660 5661 5662 5662 5663 5663 5664 5665 5666 5666 5667 5668 5668 5669 5670 5670 5670 5670 5670 5671 5672 5673 5674 5674 5674 5675 5675 5676 5676 5677 5677 5678 5678 5678 5678 5678 5678 5679 5679
5618 5619 5620 5621 5622 5624 5625 5626 5628 5629 5630 5631 5632 5633 5634 5635 5636 5637 5637 5638 5639 5639 5640 5641 5641 5642 5643 5643 5644 5645 5646 5646 5647 5648 5648 5649 5649 5650 5651 5652 5652 5652 5653 5654 5655 5655 5655 5654 5655 5657 5658 5658 5658 5659 5660 5661 5662 5662 5663 5663 5664 5664 5664 5664 5664 5664 5665 5666 5667 5668 5668 5668 5669 5669 5670 5671 5671 5671 5672 5672 5673 5673 5673 5672 5672 5672 5673
5617 5618 5619 5620 5622 5623 5624 5625 5627 5628 5629 5630 5631 5632 5633 5633 5634 5635 5635 5636 5636 5636 5637 5638 5638 5639 5640 5640 5641 5641 5642 5642 5643 5644 5644 5645 5646 5646 5647 5648 5648 5649 5649 5650 5651 5651 5650 5650 5652 5653 5653 5653 5654 5655 5656 5657 5657 5658 5658 5658 5658 5659 5659 5659 5659 5660 5661 5662 5663 5663 5663 5663 5664 5665 5665 5665 5665 5666 5667 5667 5668 5667 5666 5666 5666 5667 5667
5617 5618 5619 5620 5621 5622 5623 5624 5625 5626 5627 5628 5629 5630 5630 5631 5632 5632 5633 5633 5633 5634 5634 5634 5635 5635 5636 5636 5637 5637 5637 5638 5638 5639 5639 5639 5640 5641 5642 5643 5643 5644 5644 5645 5646 5646 5646 5647 5648 5648 5648 5649 5649 5650 5651 5652 5653 5653 5653 5653 5654 5655 5655 5655 5655 5656 5656 5657 5658 5658 5658 5658 5659 5659 5660 5659 5659 5660 5662 5663 5663 5662 5661 5660 5661 5662 5662
5616 5617 5618 5619 5620 5621 5622 5623 5624 5625 5626 5626 5627 5627 5628 5629 5629 5629 5630 5630 5630 5630 5631 5631 5631 5631 5631 5632 5632 5633 5633 5633 5634 5634 5633 5634 5634 5635 5636 5637 5638 5638 5638 5639 5641 5641 5642 5642 5643 5643 5644 5644 5644 5645 5646 5648 5648 5648 5648 5648 5649 5650 5650 5650 5650 5651 5651 5652 5653 5653 5652 5653 5654 5655 5655 5654 5654 5655 5657 5658 5658 5657 5655 5654 5655 5657 5658
5617 5617 5618 5619 5620 5620 5621 5622 5623 5623 5624 5624 5625 5625 5626 5626 5626 5626 5627 5627 5627 5627 5627 5627 5627 5627 5627 5627 5628 5628 5628 5628 5628 5629 5628 5628 5629 5630 5630 5631 5632 5631 5631 5632 5634 5635 5635 5636 5637 5637 5638 5639 5639 5640 5641 5642 5642 5642 5643 5643 5643 5644 5645 5645 5644 5645 5645 5646 5647 5647 5647 5647 5648 5649 5650 5649 5649 5651 5653 5653 5653 5652 5650 5648 5649 5652 5652
5617 5618 5619 5619 5620 5621 5621 5622 5622 5623 5623 5624 5624 5624 5624 5624 5624 5624 5624 5624 5624 5624 5624 5624 5624 5624 5623 5623 5623 5623 5622 5622 5623 5623 5623 5623 5624 5624 5624 5625 5626 5626 5625 5626 5628 5628 5629 5629 5630 5631 5632 5632 5633 5634 5635 5636 5636 5636 5636 5637 5637 5638 5639 5639 5639 5639 5640 5640 5641 5642 5642 5642 5641 5642 5643 5643 5643 5644 5646 5648 5648 5647 5645 5643 5643 5645 5646
5619 5619 5620 5620 5621 5621 5621 5622 5622 5623 5623 5623 5624 5624 5624 5624 5624 5624 5623 5623 5622 5622 5621 5621 5621 5620 5619 5619 5619 5618 5617 5617 5617 5617 5617 5617 5618 5618 5618 5619 5620 5620 5620 5620 5622 5623 5623 5623 5624 5625 5625 5626 5627 5627 5628 5629 5630 5629 5630 5631 5632 5632 5633 5634 5633 5633 5633 5635 5636 5636 5636 5635 5635 5636 5637 5638 5636 5636 5638 5641 5642 5641 5639 5637 5637 5638 5639
5620 5620 5620 5621 5621 5622 5622 5623 5623 5624 5624 5624 5624 5625 5625 5625 5624 5624 5624 5623 5622 5621 5620 5619 5619 5618 5617 5616 5615 5614 5612 5612 5612 5611 5611 5611 5611 5611 5612 5612 5613 5614 5614 5615 5616 5617 5617 5618 5619 5620 5620 5620 5621 5621 5622 5623 5623 5622 5623 5625 5626 5626 5627 5628 5628 5627 5627 5628 5629 5630 5629 5629 5629 5630 5631 5632 5631 5630 5631 5634 5635 5635 5633 5631 5631 5631 5633
5621 5621 5622 5622 5622 5623 5624 5624 5624 5625 5625 5625 5625 5626 5626 5625 5625 5625 5624 5624 5623 5622 5621 5619 5618 5617 5615 5614 5612 5611 5609 5608 5607 5606 5606 5605 5605 5605 5605 5606 5606 5607 5608 5608 5609 5610 5611 5612 5613 5614 5614 5614 5615 5615 5616 5617 5617 5616 5617 5618 5619 5619 5620 5621 5622 5622 5622 5622 5622 5622 5623 5623 5624 5625 5625 5625 5625 5625 5625 5627 5628 5627 5626 5625 5626 5626 5627
5622 5622 5623 5623 5624 5624 5625 5625 5625 5626 5626 5626 5626 5626 5626 5626 5626 5625 5625 5624 5623 5622 5621 5620 5618 5617 5615 5613 5611 5609 5607 5606 5605 5603 5602 5602 5601 5601 5601 5601 5601 5602 5602 5602 5603 5603 5604 5605 5606 5607 5608 5608 5608 5609 5611 5611 5610 5610 5612 5613 5613 5613 5613 5615 5616 5617 5616 5615 5615 5616 5617 5618 5618 5619 5619 5619 5618 5619 5619 5621 5621 5621 5619 5619 5620 5621 5620
5623 5623 5624 5624 5625 5625 5626 5626 5626 5627 5627 5627 5627 5627 5627 5627 5626 5626 5625 5624 5623 5622 5621 5620 5618 5617 5615 5613 5611 5609 5607 5605 5603 5602 5601 5599 5599 5598 5598 5597 5598 5598 5598 5598 5598 5598 5599 5600 5600 5601 5601 5602 5602 5603 5604 5604 5604 5604 5606 5607 5607 5607 5607 5609 5610 5610 5610 5609 5610 5610 5611 5612 5612 5613 5613 5612 5612 5612 5614 5615 5615 5614 5614 5614 5615 5615 5614
5623 5624 5624 5625 5625 5626 5626 5627 5627 5627 5627 5628 5628 5628 5627 5627 5627 5626 5625 5624 5623 5622 5621 5620 5618 5617 5615 5613 5612 5610 5608 5606 5604 5602 5600 5599 5598 5597 5596 5596 5595 5595 5595 5595 5595 5595 5595 5596 5596 5596 5596 5596 5597 5598 5598 5598 5598 5598 5599 5600 5600 5601 5601 5602 5603 5603 5603 5603 5604 5604 5605 5605 5606 5606 5606 5606 5606 5607 5608 5609 5609 5608 5608 5608 5609 5609 5609
5624 5624 5625 5625 5626 5626 5627 5627 5627 5627 5628 5628 5628 5628 5628 5627 5627 5626 5625 5625 5624 5623 5622 5620 5618 5616 5615 5613 5612 5610 5608 5606 5604 5603 5601 5599 5598 5596 5595 5595 5594 5593 5593 5593 5593 5592 5592 5592 5592 5592 5592 5592 5592 5593 5593 5593 5593 5593 5594 5594 5594 5595 5595 5595 5596 5597 5597 5597 5598 5598 5598 5599 5600 5600 5599 5600 5601 5601 5602 5603 5603 5603 5602 5602 5603 5603 5603
5624 5625 5625 5626 5626 5626 5627 5627 5627 5627 5628 5628 5628 5628 5628 5628 5627 5627 5626 5625 5624 5623 5622 5620 5618 5617 5616 5614 5612 5610 5609 5607 5605 5603 5602 5600 5599 5597 5596 5594 5593 5592 5592 5591 5591 5590 5590 5590 5590 5590 5589 5589 5589 5589 5589 5589 5588 5588 5589 5589 5589 5589 5590 5590 5590 5591 5591 5591 5592 5592 5592 5592 5593 5594 5593 5594 5595 5596 5596 5597 5598 5597 5596 5596 5597 5597 5597
5625 5625 5625 5626 5626 5627 5627 5627 5627 5627 5628 5628 5628 5628 5628 5627 5627 5627 5626 5625 5624 5623 5622 5621 5620 5618 5617 5615 5613 5611 5610 5608 5606 5604 5603 5601 5600 5598 5596 5595 5593 5592 5591 5590 5589 5588 5588 5587 5587 5587 5587 5586 5586 5586 5586 5585 5585 5585 5585 5585 5585 5585 5585 5585 5585 5586 5586 5586 5587 5587 5586 5586 5588 5588 5587 5588 5589 5590 5590 5591 5592 5592 5591 5591 5592 5592 5592
5625 5625 5626 5626 5627 5627 5627 5627 5627 5627 5627 5627 5627 5627 5627 5627 5627 5627 5626 5625 5624 5623 5622 5621 5620 5619 5617 5616 5614 5612 5610 5609 5607 5605 5603 5601 5600 5598 5597 5595 5594 5592 5591 5590 5588 5587 5586 5585 5584 5584 5583 5583 5583 5582 5582 5582 5582 5581 5581 5581 5580 5580 5580 5580 5580 5581 5581 5582 5582 5582 5581 5581 5582 5582 5582 5582 5583 5584 5584 5586 5587 5587 5586 5587 5587 5587 5587
5625 5625 5626 5626 5627 5627 5627 5628 5628 5628 5628 5627 5627 5627 5627 5627 5627 5626 5626 5625 5624 5623 5622 5621 5620 5619 5617 5616 5614 5612 5610 5609 5607 5605 5603 5601 5599 5598 5596 5595 5594 5592 5591 5589 5588 5587 5585 5584 5583 5582 5581 5580 5580 5579 5578 5578 5578 5578 5577 5577 5576 5576 5576 5576 5576 5576 5576 5576 5577 5577 5576 5576 5577 5577 5577 5577 5577 5578 5579 5581 5582 5582 5582 5581 5582 5582 5583
5625 5626 5626 5627 5627 5627 5628 5628 5628 5628 5628 5628 5627 5627 5627 5627 5626 5626 5625 5625 5624 5623 5622 5621 5619 5618 5617 5615 5614 5612 5610 5609 5607 5605 5603 5601 5599 5598 5596 5595 5594 5592 5591 5589 5588 5586 5585 5584 5582 5581 5579 5578 5577 5576 5575 5575 5574 5574 5573 5573 5573 5572 5572 5572 5572 5571 5571 5571 5572 5572 5572 5572 5572 5572 5572 5572 5572 5572 5574 5576 5576 5576 5576 5576 5577 5577 5578
5625 5626 5626 5627 5627 5628 5628 5628 5628 5628 5628 5628 5628 5627 5627 5627 5626 5626 5625 5624 5623 5622 5621 5620 5619 5618 5616 5615 5614 5612 5611 5609 5607 5605 5604 5602 5600 5598 5597 5595 5593 5592 5590 5588 5587 5585 5584 5582 5581 5579 5578 5577 5575 5574 5573 5572 5571 5570 5570 5569 5569 5569 5568 5568 5567 5567 5567 5567 5567 5567 5568 5568 5567 5567 5567 5567 5567 5567 5569 5570 5571 5571 5571 5572 5572 5572 5573
5626 5626 5627 5627 5628 5628 5629 5629 5629 5629 5628 5628 5628 5628 5627 5627 5626 5625 5625 5624 5623 5622 5621 5619 5618 5617 5616 5614 5613 5612 5610 5609 5607 5606 5604 5602 5600 5598 5597 5595 5593 5591 5589 5587 5586 5584 5582 5581 5579 5578 5577 5575 5574 5573 5571 5570 5569 5568 5567 5566 5565 5565 5564 5564 5564 5563 5563 5563 5563 5563 5563 5563 5563 5563 5562 5562 5562 5563 5564 5565 5565 5566 5567 5567 5567 5568 5568
5626 5627 5627 5628 5628 5629 5629 5629 5629 5629 5628 5628 5628 5627 5627 5626 5626 5625 5624 5623 5622 5621 5620 5619 5618 5616 5615 5614 5612 5611 5610 5608 5607 5605 5604 5602 5600 5598 5596 5594 5592 5590 5588 5586 5584 5583 5581 5580 5579 5577 5575 5574 5572 5571 5569 5568 5567 5566 5564 5563 5562 5562 5561 5561 5560 5559 5559 5559 5559 5559 5559 5559 5559 5559 5558 5557 5557 5559 5559 5559 5560 5562 5563 5563 5562 5563 5564
5626 5627 5627 5628 5628 5628 5629 5629 5629 5628 5628 5628 5627 5627 5627 5626 5625 5624 5623 5623 5622 5620 5619 5618 5617 5615 5614 5612 5611 5610 5608 5607 5605 5604 5602 5600 5599 5597 5595 5593 5591 5589 5587 5585 5583 5581 5579 5578 5577 5575 5573 5572 5570 5569 5567 5566 5565 5563 5562 5561 5560 5559 5558 5558 5557 5556 5556 5555 5554 5554 5555 5555 5555 5555 5554 5554 5554 5554 5555 5555 5556 5557 5558 5558 5558 5559 5560
5626 5627 5627 5628 5628 5628 5628 5628 5628 5628 5628 5627 5627 5626 5626 5625 5624 5623 5622 5622 5621 5619 5618 5617 5616 5614 5613 5611 5610 5608 5606 5605 5603 5602 5600 5598 5597 5595 5593 5590 5588 5586 5585 5583 5581 5579 5577 5576 5574 5572 5571 5569 5568 5566 5565 5563 5562 5561 5560 5559 5557 5556 5556 5555 5554 5554 5553 5552 5551 5550 5550 5550 5550 5550 5550 5550 5550 5551 5551 5551 5552 5553 5554 5554 5555 5555 5556
5626 5627 5627 5627 5627 5627 5627 5627 5627 5627 5627 5626 5626 5625 5625 5624 5623 5622 5621 5620 5619 5618 5617 5615 5614 5613 5611 5609 5608 5606 5605 5603 5601 5600 5598 5596 5594 5592 5590 5588 5586 5584 5582 5581 5579 5577 5575 5573 5572 5570 5568 5567 5565 5564 5562 5561 5560 5558 5557 5556 5555 5554 5553 5552 5551 5551 5550 5549 5549 5548 5547 5547 5547 5547 5547 5547 5547 5547 5547 5548 5548 5549 5550 5551 5551 5552 5552
5626 5626 5626 5626 5627 5626 5626 5626 5626 5626 5625 5625 5624 5624 5623 5622 5622 5621 5620 5619 5618 5616 5615 5614 5612 5611 5609 5608 5606 5604 5603 5601 5599 5597 5596 5594 5592 5590 5588 5586 5584 5582 5580 5578 5576 5574 5572 5570 5569 5567 5566 5564 5563 5561 5560 5558 5557 5556 5554 5553 5552 5551 5550 5549 5548 5547 5547 5546 5545 5545 5544 5543 5543 5543 5543 5544 5544 5544 5544 5544 5544 5545 5546 5547 5547 5548 5549
5625 5625 5626 5626 5626 5626 5625 5625 5625 5624 5624 5623 5623 5622 5622 5621 5620 5619 5618 5617 5616 5615 5613 5612 5610 5609 5607 5606 5604 5602 5600 5599 5597 5595 5593 5591 5589 5587 5585 5583 5581 5579 5578 5576 5574 5572 5570 5568 5566 5564 5563 5561 5560 5558 5557 5555 5554 5553 5551 5550 5549 5548 5547 5546 5545 5544 5544 5543 5542 5542 5541 5541 5540 5540 5540 5540 5540 5540 5540 5540 5541 5541 5542 5542 5543 5544 5545
5624 5625 5625 5625 5625 5624 5624 5624 5624 5623 5623 5622 5622 5621 5620 5619 5618 5617 5616 5615 5614 5613 5611 5610 5608 5607 5605 5603 5601 5600 5598 5596 5594 5592 5590 5588 5586 5585 5583 5581 5579 5577 5575 5574 5572 5570 5568 5566 5564 5562 5560 5559 5557 5555 5554 5552 5551 5550 5549 5547 5546 5544 5543 5542 5542 5541 5540 5539 5539 5538 5538 5537 5537 5537 5537 5536 5536 5536 5537 5537 5537 5537 5538 5539 5539 5540 5541
5623 5623 5623 5623 5623 5623 5623 5622 5622 5621 5621 5620 5620 5619 5618 5617 5616 5615 5614 5613 5611 5610 5609 5607 5606 5604 5602 5600 5599 5597 5595 5593 5591 5589 5587 5585 5584 5582 5580 5578 5576 5574 5572 5570 5568 5567 5565 5563 5561 5559 5557 5555 5554 5552 5551 5549 5548 5547 5546 5544 5543 5542 5540 5539 5538 5538 5537 5536 5535 5535 5534 5534 5534 5533 5533 5533 5533 5533 5533 5533 5533 5533 5534 5535 5536 5537 5537